Location: Volcano
(19.4310°N, 155.2380°W)
Time: 10:44:38
(UTC-10:00)

Envisat - Visible Passes

Search period start: 15 January 2021 00:00
Search period end: 25 January 2021 00:00
Orbit: 764 x 766 km, 98.1° (Epoch: 15 January)

Date Brightness Start Highest point End Pass type
(mag) Time Alt. Az. Time Alt. Az. Time Alt. Az.
15 Jan 3.0 05:56:01 10° NNE 06:01:07 89° ESE 06:06:10 10° SSW visible
15 Jan 6.1 18:39:50 10° SW 18:42:47 16° W 18:45:44 10° WNW visible
16 Jan 4.8 05:19:48 10° NE 05:24:19 32° E 05:28:48 10° SSE visible
17 Jan 6.2 04:45:38 10° ENE 04:47:25 12° E 04:49:10 10° ESE visible
17 Jan 3.3 06:21:37 10° N 06:26:25 45° WNW 06:31:13 10° SSW visible
18 Jan 3.4 05:44:40 10° NNE 05:49:43 66° ESE 05:54:44 10° S visible
18 Jan 5.9 18:27:35 10° SSW 18:31:21 21° W 18:35:07 10° NW visible
19 Jan 5.3 05:08:49 10° NE 05:12:53 24° E 05:16:56 10° SSE visible
20 Jan 3.0 06:10:04 10° N 06:15:03 61° WNW 06:20:02 10° SSW visible
21 Jan 4.0 05:33:25 10° NNE 05:38:18 49° E 05:43:11 10° S visible
22 Jan 5.7 04:58:02 10° NE 05:01:27 18° E 05:04:51 10° SE visible
23 Jan 2.9 05:58:36 10° N 06:03:41 83° WNW 06:08:44 10° SSW visible
23 Jan 6.3 18:42:50 10° SW 18:45:23 14° W 18:47:57 10° WNW visible
24 Jan 4.6 05:22:16 10° NNE 05:26:54 36° E 05:31:31 10° SSE visible
